Terminal Aerodrome Forecast
Issued by NWS

Home | Current Version | Previous Version | Graphics & Text | Print | Product List | Glossary On
Versions: 1 2 3 4 5 6 7 8 9 10 11 12 13
000
FTUS43 KMPX 302341
TAFRWF
TAF
KRWF 302341Z 0100/0124 16010KT P6SM SCT250
     FM011000 18007KT P6SM -RA SCT050 OVC080
     FM011400 21009KT P6SM SCT090=

USA.gov is the U.S. government's official web portal to all federal, state and local government web resources and services.